Showing default

RAISE 2, 49397

Orbit data source: Space-Track

RAISE 2, 49397 is a payload satellite owned by JAXA (JP) in SSO that was launched on Tue, 09 Nov 2021 UTC via an EPSILON launch vehicle from the Kagoshima Space Center University Of Tokyo (KSCUT). Payload-class satellites include a variety of spacecraft equipped with specific instruments for various scientific and technological missions. These include communications satellites like Starlink; space stations such as the ISS; scientific satellites like the Hubble; Earth observation satellites from companies like Planet Labs, Umbra, and HawkEye 360; GPS; miniature CubeSats for education and research; and military/defense satellites.

Loading next visibility...
Identifier
49397, 2021-102C
Orbit
SSO
Country
Flag of JPJP / JPN
Related business
Manufacturer
JAXA
Mission
Operational Civil Technology
Bus & Motor
RAPIS, Unknown motor
Mass
110 kg wet, 110 kg dry
Launch date (UTC)
2021-11-09 (4 years ago)
Launch vehicle
EPSILON
Launch site
Kagoshima Space Center University Of Tokyo (KSCUT)
Object type
Payload
Rocket body
Debris
Shape & HBR
Box, 1.0 m
Radar Cross Section
1.120 m², Medium (>0.1 m² and < 1m²)

Expand to show TLE details & history
Last TLE update: 13 hours ago

TLE from 13 hours ago
0 RAISE 2
1 49397U 21102C   26095.03257793  .00009068  00000-0  41542-3 0  9998
2 49397  97.3335 130.0021 0009177 170.1683 189.9734 15.20662690242311
Epoch: 2026-04-05T00:46Z
TLE epoch observation values (Epoch: 2026-04-05T00:46:54.733Z)
Latitude
-0°
Longitude
-75.06978°
Altitude
513.155 km
Speed
7.604 km/s
True Right ascension
08h 40m 00s
True Declination
0° 00' 00"
Sunlit
Object was in full shadow at epoch
Visualization orbit readout
Latitude
Unknown
Longitude
Unknown
Altitude
Unknown
Speed
Unknown
Apparent Right ascension
Unknown
Apparent Declination
Unknown
Sunlit
N/A
Visualization observer readout
Local Sidereal Time
19:26:42
Azimuth
Unknown
Elevation
Unknown
Doppler factor
Unknown
Orbital elements
Apogee altitude
507.115 km
Perigee altitude
494.49 km
Semi-major axis
6,878.939 km
Eccentricity
0.00092
Inclination
97.3335°
RAAN
130.0021°
Arg. of periapsis
170.1683°
True anomaly
189.95521°
Mean anomaly
189.9734°
Eccentric anomaly
189.9643°
Mean motion
3.80418 °/min
Orbital period
94.63 mins
BSTAR
0.00041542
Loading maneuver chart data...
Computing Atmospheric mass density...
Loading historical data...
Loading historical data...
Loading historical data...
Loading historical data...
Loading historical data...
Loading historical data...
Loading historical data...

Documentation

Showing up to 5 results
|